Time,TemperatureF,DewpointF,PressureIn,WindDirection,WindDirectionDegrees,WindSpeedMPH,WindSpeedGustMPH,Humidity,HourlyPrecipIn,Conditions,Clouds,dailyrainin,SoftwareType,DateUTC
2013-06-15 00:12:00,56.7,53.5,29.75,SSW,202,1.7,-999.0,89,-99.99,,,0.00,Acu-Link.com,2013-06-15 07:12:00,
2013-06-15 00:27:00,56.1,53.2,29.75,SW,225,2.7,-999.0,90,-99.99,,,0.00,Acu-Link.com,2013-06-15 07:27:00,
2013-06-15 00:42:00,55.8,53.2,29.75,WSW,247,1.7,-999.0,91,-99.99,,,0.00,Acu-Link.com,2013-06-15 07:42:00,
2013-06-15 00:57:00,55.6,53.0,29.74,West,270,0.0,-999.0,91,-99.99,,,0.00,Acu-Link.com,2013-06-15 07:57:00,
2013-06-15 01:13:00,55.4,52.8,29.74,NNW,337,0.0,-999.0,91,-99.99,,,0.00,Acu-Link.com,2013-06-15 08:13:00,
2013-06-15 01:29:00,55.2,52.6,29.73,West,270,1.7,-999.0,91,-99.99,,,0.00,Acu-Link.com,2013-06-15 08:29:00,
2013-06-15 01:44:00,55.0,52.4,29.73,West,270,0.0,-999.0,91,-99.99,,,0.00,Acu-Link.com,2013-06-15 08:44:00,
2013-06-15 01:59:00,54.5,52.5,29.73,NE,45,1.7,-999.0,93,-99.99,,,0.00,Acu-Link.com,2013-06-15 08:59:00,
2013-06-15 02:14:00,54.3,52.3,29.71,West,270,2.2,-999.0,93,-99.99,,,0.00,Acu-Link.com,2013-06-15 09:14:00,
2013-06-15 02:29:00,54.1,52.4,29.71,North,0,0.0,-999.0,94,-99.99,,,0.00,Acu-Link.com,2013-06-15 09:29:00,
2013-06-15 02:45:00,54.0,52.3,29.71,South,180,1.1,-999.0,94,-99.99,,,0.00,Acu-Link.com,2013-06-15 09:45:00,
2013-06-15 03:00:00,53.6,51.6,29.71,NNE,22,0.0,-999.0,93,-99.99,,,0.00,Acu-Link.com,2013-06-15 10:00:00,
2013-06-15 03:15:00,53.4,51.7,29.71,SW,225,0.0,-999.0,94,-99.99,,,0.00,Acu-Link.com,2013-06-15 10:15:00,
2013-06-15 03:30:00,53.8,52.1,29.71,West,270,0.0,-999.0,94,-99.99,,,0.00,Acu-Link.com,2013-06-15 10:30:00,
2013-06-15 03:45:00,54.0,52.3,29.71,NE,45,1.1,-999.0,94,-99.99,,,0.00,Acu-Link.com,2013-06-15 10:45:00,
2013-06-15 04:00:00,53.4,52.3,29.70,NNW,337,0.0,-999.0,96,-99.99,,,0.00,Acu-Link.com,2013-06-15 11:00:00,
2013-06-15 04:15:00,53.4,52.3,29.70,NW,315,1.1,-999.0,96,-99.99,,,0.00,Acu-Link.com,2013-06-15 11:15:00,
2013-06-15 04:30:00,53.2,51.8,29.70,WNW,292,0.0,-999.0,95,-99.99,,,0.00,Acu-Link.com,2013-06-15 11:30:00,
2013-06-15 04:45:00,53.2,51.8,29.70,NE,45,3.2,-999.0,95,-99.99,,,0.00,Acu-Link.com,2013-06-15 11:45:00,
2013-06-15 05:00:00,53.2,52.1,29.70,NNE,22,2.2,-999.0,96,-99.99,,,0.00,Acu-Link.com,2013-06-15 12:00:00,
2013-06-15 05:16:00,53.2,52.1,29.69,NW,315,2.2,-999.0,96,-99.99,,,0.00,Acu-Link.com,2013-06-15 12:16:00,
2013-06-15 05:31:00,53.1,52.0,29.69,NNE,22,0.0,-999.0,96,-99.99,,,0.00,Acu-Link.com,2013-06-15 12:31:00,
2013-06-15 05:46:00,52.7,51.6,29.69,NNE,22,1.1,-999.0,96,-99.99,,,0.00,Acu-Link.com,2013-06-15 12:46:00,
2013-06-15 06:01:00,53.1,52.0,29.69,NNE,22,2.7,-999.0,96,-99.99,,,0.00,Acu-Link.com,2013-06-15 13:01:00,
2013-06-15 06:16:00,54.3,52.3,29.69,West,270,2.7,-999.0,93,-99.99,,,0.00,Acu-Link.com,2013-06-15 13:16:00,
2013-06-15 06:31:00,55.6,52.7,29.69,WNW,292,2.2,-999.0,90,-99.99,,,0.00,Acu-Link.com,2013-06-15 13:31:00,
2013-06-15 06:46:00,55.0,52.7,29.69,NNE,22,3.2,-999.0,92,-99.99,,,0.00,Acu-Link.com,2013-06-15 13:46:00,
2013-06-15 07:01:00,57.6,53.1,29.68,NNE,22,2.7,-999.0,85,-99.99,,,0.00,Acu-Link.com,2013-06-15 14:01:00,
2013-06-15 07:16:00,58.3,52.2,29.69,ENE,67,3.7,-999.0,80,-99.99,,,0.00,Acu-Link.com,2013-06-15 14:16:00,
2013-06-15 07:32:00,57.9,52.1,29.68,NE,45,4.2,-999.0,81,-99.99,,,0.00,Acu-Link.com,2013-06-15 14:32:00,
2013-06-15 07:47:00,59.7,51.8,29.68,NE,45,2.7,-999.0,75,-99.99,,,0.00,Acu-Link.com,2013-06-15 14:47:00,
2013-06-15 08:02:00,60.8,52.1,29.68,NNE,22,3.2,-999.0,73,-99.99,,,0.00,Acu-Link.com,2013-06-15 15:02:00,
2013-06-15 08:17:00,60.1,51.4,29.68,NE,45,4.2,-999.0,73,-99.99,,,0.00,Acu-Link.com,2013-06-15 15:17:00,
2013-06-15 08:32:00,60.4,51.7,29.68,NNE,22,3.2,-999.0,73,-99.99,,,0.00,Acu-Link.com,2013-06-15 15:32:00,
2013-06-15 08:47:00,60.6,51.5,29.67,NE,45,2.2,-999.0,72,-99.99,,,0.00,Acu-Link.com,2013-06-15 15:47:00,
2013-06-15 09:03:00,61.7,52.6,29.67,SW,225,3.7,-999.0,72,-99.99,,,0.00,Acu-Link.com,2013-06-15 16:03:00,
2013-06-15 09:18:00,61.7,54.1,29.68,NW,315,6.3,-999.0,76,-99.99,,,0.00,Acu-Link.com,2013-06-15 16:18:00,
2013-06-15 09:33:00,61.7,53.3,29.66,North,0,6.3,-999.0,74,-99.99,,,0.00,Acu-Link.com,2013-06-15 16:33:00,
2013-06-15 09:48:00,61.5,53.1,29.67,NW,315,6.3,-999.0,74,-99.99,,,0.00,Acu-Link.com,2013-06-15 16:48:00,
2013-06-15 10:03:00,61.9,53.5,29.67,NNW,337,4.2,-999.0,74,-99.99,,,0.00,Acu-Link.com,2013-06-15 17:03:00,
2013-06-15 10:18:00,62.6,53.8,29.66,WSW,247,5.3,-999.0,73,-99.99,,,0.00,Acu-Link.com,2013-06-15 17:18:00,
2013-06-15 10:33:00,62.4,53.6,29.65,WNW,292,7.3,-999.0,73,-99.99,,,0.00,Acu-Link.com,2013-06-15 17:33:00,
2013-06-15 10:48:00,63.1,53.5,29.65,NNE,22,5.3,-999.0,71,-99.99,,,0.00,Acu-Link.com,2013-06-15 17:48:00,
2013-06-15 11:03:00,63.3,54.1,29.65,NW,315,6.3,-999.0,72,-99.99,,,0.00,Acu-Link.com,2013-06-15 18:03:00,
2013-06-15 11:19:00,63.1,53.9,29.65,WNW,292,6.3,-999.0,72,-99.99,,,0.00,Acu-Link.com,2013-06-15 18:19:00,
2013-06-15 11:34:00,63.9,54.3,29.64,West,270,5.3,-999.0,71,-99.99,,,0.00,Acu-Link.com,2013-06-15 18:34:00,
2013-06-15 11:49:00,64.4,54.0,29.65,West,270,5.3,-999.0,69,-99.99,,,0.00,Acu-Link.com,2013-06-15 18:49:00,
2013-06-15 12:04:00,65.5,55.1,29.65,WNW,292,5.8,-999.0,69,-99.99,,,0.00,Acu-Link.com,2013-06-15 19:04:00,
2013-06-15 12:19:00,65.5,54.7,29.64,WSW,247,5.3,-999.0,68,-99.99,,,0.00,Acu-Link.com,2013-06-15 19:19:00,
2013-06-15 12:34:00,66.4,54.7,29.64,SW,225,6.3,-999.0,66,-99.99,,,0.00,Acu-Link.com,2013-06-15 19:34:00,
2013-06-15 12:49:00,66.4,54.7,29.63,West,270,7.3,-999.0,66,-99.99,,,0.00,Acu-Link.com,2013-06-15 19:49:00,
2013-06-15 13:04:00,66.9,54.7,29.64,West,270,5.3,-999.0,65,-99.99,,,0.00,Acu-Link.com,2013-06-15 20:04:00,
2013-06-15 13:19:00,67.6,55.0,29.63,SW,225,6.3,-999.0,64,-99.99,,,0.00,Acu-Link.com,2013-06-15 20:19:00,
2013-06-15 13:35:00,67.8,54.3,29.63,West,270,8.3,-999.0,62,-99.99,,,0.00,Acu-Link.com,2013-06-15 20:35:00,
2013-06-15 13:50:00,68.9,54.9,29.62,SW,225,6.3,-999.0,61,-99.99,,,0.00,Acu-Link.com,2013-06-15 20:50:00,
2013-06-15 14:05:00,69.4,54.9,29.63,West,270,3.7,-999.0,60,-99.99,,,0.00,Acu-Link.com,2013-06-15 21:05:00,
2013-06-15 14:20:00,69.4,54.4,29.62,West,270,8.3,-999.0,59,-99.99,,,0.00,Acu-Link.com,2013-06-15 21:20:00,
2013-06-15 14:35:00,70.0,53.6,29.62,West,270,7.3,-999.0,56,-99.99,,,0.00,Acu-Link.com,2013-06-15 21:35:00,
2013-06-15 14:50:00,69.6,53.7,29.61,WNW,292,6.3,-999.0,57,-99.99,,,0.00,Acu-Link.com,2013-06-15 21:50:00,
2013-06-15 15:05:00,70.0,54.1,29.61,NNW,337,4.7,-999.0,57,-99.99,,,0.00,Acu-Link.com,2013-06-15 22:05:00,
2013-06-15 15:20:00,70.5,53.0,29.60,West,270,6.8,-999.0,54,-99.99,,,0.00,Acu-Link.com,2013-06-15 22:20:00,
2013-06-15 15:35:00,71.1,53.1,29.61,West,270,6.3,-999.0,53,-99.99,,,0.00,Acu-Link.com,2013-06-15 22:35:00,
2013-06-15 15:51:00,70.9,54.4,29.61,NW,315,4.2,-999.0,56,-99.99,,,0.00,Acu-Link.com,2013-06-15 22:51:00,
2013-06-15 16:06:00,70.7,54.7,29.61,NNE,22,4.7,-999.0,57,-99.99,,,0.00,Acu-Link.com,2013-06-15 23:06:00,
2013-06-15 16:21:00,70.3,54.8,29.60,SSW,202,5.8,-999.0,58,-99.99,,,0.00,Acu-Link.com,2013-06-15 23:21:00,
2013-06-15 16:36:00,70.5,54.5,29.61,WSW,247,4.7,-999.0,57,-99.99,,,0.00,Acu-Link.com,2013-06-15 23:36:00,
2013-06-15 16:51:00,71.1,54.6,29.60,West,270,5.8,-999.0,56,-99.99,,,0.00,Acu-Link.com,2013-06-15 23:51:00,
2013-06-15 17:06:00,70.5,55.0,29.60,West,270,5.3,-999.0,58,-99.99,,,0.00,Acu-Link.com,2013-06-16 00:06:00,
2013-06-15 17:22:00,70.0,54.5,29.60,West,270,6.3,-999.0,58,-99.99,,,0.00,Acu-Link.com,2013-06-16 00:22:00,
2013-06-15 17:37:00,70.3,54.3,29.60,ENE,67,5.8,-999.0,57,-99.99,,,0.00,Acu-Link.com,2013-06-16 00:37:00,
2013-06-15 17:52:00,70.9,53.4,29.60,WSW,247,4.2,-999.0,54,-99.99,,,0.00,Acu-Link.com,2013-06-16 00:52:00,
2013-06-15 18:07:00,70.9,52.9,29.60,West,270,4.2,-999.0,53,-99.99,,,0.00,Acu-Link.com,2013-06-16 01:07:00,
2013-06-15 18:22:00,71.4,52.3,29.62,NNW,337,4.7,-999.0,51,-99.99,,,0.00,Acu-Link.com,2013-06-16 01:22:00,
2013-06-15 18:37:00,71.8,53.7,29.60,West,270,3.7,-999.0,53,-99.99,,,0.00,Acu-Link.com,2013-06-16 01:37:00,
2013-06-15 18:52:00,72.1,53.0,29.60,NW,315,4.2,-999.0,51,-99.99,,,0.00,Acu-Link.com,2013-06-16 01:52:00,
2013-06-15 19:07:00,71.4,53.9,29.61,NNE,22,5.3,-999.0,54,-99.99,,,0.00,Acu-Link.com,2013-06-16 02:07:00,
2013-06-15 19:22:00,72.0,54.9,29.60,WSW,247,4.2,-999.0,55,-99.99,,,0.00,Acu-Link.com,2013-06-16 02:22:00,
2013-06-15 19:38:00,72.0,55.4,29.60,West,270,0.0,-999.0,56,-99.99,,,0.00,Acu-Link.com,2013-06-16 02:38:00,
2013-06-15 19:53:00,71.8,55.2,29.62,South,180,0.0,-999.0,56,-99.99,,,0.00,Acu-Link.com,2013-06-16 02:53:00,
2013-06-15 20:08:00,71.2,54.7,29.61,SW,225,2.7,-999.0,56,-99.99,,,0.00,Acu-Link.com,2013-06-16 03:08:00,
2013-06-15 20:23:00,69.8,54.3,29.61,SSW,202,3.7,-999.0,58,-99.99,,,0.00,Acu-Link.com,2013-06-16 03:23:00,
2013-06-15 20:38:00,69.1,54.6,29.62,WSW,247,3.2,-999.0,60,-99.99,,,0.00,Acu-Link.com,2013-06-16 03:38:00,
2013-06-15 20:53:00,68.2,55.1,29.61,SW,225,1.1,-999.0,63,-99.99,,,0.00,Acu-Link.com,2013-06-16 03:53:00,
2013-06-15 21:08:00,67.1,54.9,29.63,SE,135,0.0,-999.0,65,-99.99,,,0.00,Acu-Link.com,2013-06-16 04:08:00,
2013-06-15 21:24:00,65.7,54.4,29.62,South,180,0.0,-999.0,67,-99.99,,,0.00,Acu-Link.com,2013-06-16 04:24:00,
2013-06-15 21:39:00,64.9,54.5,29.64,South,180,0.0,-999.0,69,-99.99,,,0.00,Acu-Link.com,2013-06-16 04:39:00,
2013-06-15 21:54:00,64.2,54.2,29.64,SSW,202,0.0,-999.0,70,-99.99,,,0.00,Acu-Link.com,2013-06-16 04:54:00,
2013-06-15 22:09:00,64.0,54.8,29.64,SSW,202,0.0,-999.0,72,-99.99,,,0.00,Acu-Link.com,2013-06-16 05:09:00,
2013-06-15 22:24:00,63.1,54.7,29.64,South,180,0.0,-999.0,74,-99.99,,,0.00,Acu-Link.com,2013-06-16 05:24:00,
2013-06-15 22:39:00,62.8,55.1,29.64,South,180,0.0,-999.0,76,-99.99,,,0.00,Acu-Link.com,2013-06-16 05:39:00,
2013-06-15 22:54:00,61.9,54.6,29.65,SSE,157,0.0,-999.0,77,-99.99,,,0.00,Acu-Link.com,2013-06-16 05:54:00,
2013-06-15 23:09:00,61.5,54.2,29.66,ESE,112,0.0,-999.0,77,-99.99,,,0.00,Acu-Link.com,2013-06-16 06:09:00,
2013-06-15 23:24:00,61.2,53.6,29.67,ESE,112,0.0,-999.0,76,-99.99,,,0.00,Acu-Link.com,2013-06-16 06:24:00,
2013-06-15 23:40:00,61.7,54.4,29.66,SE,135,0.0,-999.0,77,-99.99,,,0.00,Acu-Link.com,2013-06-16 06:40:00,
2013-06-15 23:55:00,61.0,54.4,29.68,SE,135,0.0,-999.0,79,-99.99,,,0.00,Acu-Link.com,2013-06-16 06:55:00,